Commit Graph

55 Commits

Author SHA1 Message Date
GeorgeSG c183596db6 Put person buttons in more places 2021-11-21 12:09:21 +02:00
GeorgeSG f351ea1d7c Add v3_button_person 2021-11-21 11:59:19 +02:00
GeorgeSG 4fc372266c Misc improvements 2021-10-13 22:36:50 +03:00
GeorgeSG 967a8a50ce Fix radiator button copy 2021-10-13 21:51:55 +03:00
GeorgeSG 34b60283a9 Fix brita button color 2021-10-13 21:51:48 +03:00
GeorgeSG 6f6c06b6ad Update brita 2021-10-11 10:38:46 +03:00
GeorgeSG eac9cb9d72 Minor improvements 2021-10-10 20:00:08 +03:00
GeorgeSG 67a1fd9853 UI v3 2021-10-10 19:02:34 +03:00
GeorgeSG e01751b35f Improve AC 2021-10-08 10:56:19 +03:00
GeorgeSG 1fa359967e Change cover icon in buttons 2021-04-30 18:51:16 +03:00
GeorgeSG 8465bebd64 Add living room cover 2021-04-30 18:39:28 +03:00
GeorgeSG ba3c97273f Add bedroom camera 2021-03-31 21:24:25 +03:00
GeorgeSG dd57ae533f Improve scenes 2020-12-27 20:27:08 +02:00
GeorgeSG fd4aa65c22 Organize btn templates 2020-12-08 10:48:32 +02:00
GeorgeSG 5b538146fa Rename button templates 2020-12-08 10:46:05 +02:00
GeorgeSG 505341c0e7 Fix radiator btn entity id 2020-12-08 10:40:40 +02:00
GeorgeSG e404605127 Initial hallway UI. Button refactoring. 2020-12-07 23:08:33 +02:00
GeorgeSG 5d8d790cba Update dashboards 2020-11-29 19:08:51 +02:00
GeorgeSG 9217caba9e yamllint 2020-05-06 04:32:08 +03:00
GeorgeSG 1a80a6223f Extract scene button template 2020-05-03 03:16:03 +03:00
GeorgeSG 78345828ae Tweak progress buttons 2020-05-03 03:06:27 +03:00
GeorgeSG 9c0c722305 Add bedroom scenes 2020-05-02 00:11:15 +03:00
GeorgeSG a23a12f41a Refactor indicator button 2020-05-01 22:45:47 +03:00
GeorgeSG 66c5e72018 Add lux to kitchen dashboard 2020-05-01 20:44:04 +03:00
GeorgeSG 7403871bf1 Fix wrong variable name 2020-05-01 19:36:15 +03:00
GeorgeSG df65c41346 Use state indicator if filter needs changing 2020-05-01 18:00:11 +03:00
GeorgeSG e844b9f7a2 Change default state indicator size to 2px 2020-05-01 17:19:33 +03:00
GeorgeSG e4608016a8 Refactor entity choosing 2020-05-01 17:07:20 +03:00
GeorgeSG f71ebf5d6f Fix toggle by entity_id 2020-05-01 17:06:47 +03:00
GeorgeSG 4a8a194bf8 Add comment 2020-05-01 17:05:52 +03:00
GeorgeSG 1ad6699838 Make state_indicator_id optional - default to entity_id 2020-05-01 17:05:36 +03:00
GeorgeSG 4c2bc3997a just use homeassistant.toggle 2020-05-01 17:00:26 +03:00
GeorgeSG 67e50971e4 Fix name positioning in with_state_indicator 2020-05-01 16:57:20 +03:00
GeorgeSG 0edef3c526 Add more options 2020-05-01 16:48:03 +03:00
GeorgeSG 1651250c75 Use const in button templates 2020-05-01 16:44:28 +03:00
GeorgeSG 75522efb2b Add with_state_indicator button template. Use for motion 2020-05-01 16:39:12 +03:00
GeorgeSG 0090ffe0fd Enable showing just state or just name in progress card 2020-05-01 13:33:48 +03:00
GeorgeSG 3b7e813b2a Update progress button style 2020-04-30 00:33:48 +03:00
GeorgeSG b4e1fdfeb0 Update progress-button 2020-04-30 00:32:32 +03:00
GeorgeSG c2105763c6 Add degrees to progress button 2020-04-29 01:00:52 +03:00
GeorgeSG 111d3feb4e Tweak progress defaults 2020-04-27 02:27:33 +03:00
GeorgeSG b58e234538 Refactor temperature card into progress card. Use for humidity 2020-04-27 02:16:56 +03:00
GeorgeSG 3bfdaacace Tweak temperature card styles 2020-04-27 02:07:01 +03:00
GeorgeSG 5a6f436324 Tweak temperature card styles 2020-04-27 02:03:51 +03:00
GeorgeSG e433c667ba Refactor xs button 2020-04-27 01:27:51 +03:00
GeorgeSG 1c6c21518b Refactor half_button to use with_state 2020-04-27 01:25:22 +03:00
GeorgeSG e615b8fbf1 Add temperature button. Major button refactoring 2020-04-27 01:18:46 +03:00
GeorgeSG c63c713d59 More kitchen dashboard tweaks 2020-04-25 14:26:28 +03:00
GeorgeSG e1a2843a53 Add kitchen dashboard 2020-04-25 13:08:37 +03:00
GeorgeSG bd0b7aa344 Fix tap actions 2020-04-20 19:25:38 +03:00